Regional Weather Roundup
Issued by NWS

Home | Current Version | Previous Version | Graphics & Text | Print | Product List | Glossary On
Versions: 1 2 3 4 5 6 7 8 9 10 11 12 13 14 15 16 17 18 19 20 21 22 23 24 25 26 27 28 29 30 31 32 33 34 35 36 37 38 39 40 41 42 43 44 45 46 47 48 49 50
000
ASUS45 KPSR 312300
RWRAZ

ARIZONA HOURLY REGIONAL WEATHER ROUNDUP
NATIONAL WEATHER SERVICE PHOENIX AZ
400 PM MST FRI JUL 31 2015

NOTE: FAIR INDICATES FEW OR NO CLOUDS BELOW 12,000 FEET WITH NO
SIGNIFICANT WEATHER AND/OR OBSTRUCTIONS TO VISIBILITY.

AZZ001>003-036-010000-
NORTHWEST ARIZONA

CITY           SKY/WX    TMP DP  RH WIND       PRES   REMARKS
KINGMAN        SUNNY     98  47  17 SW14G23   30.06F
$$

AZZ004>008-015-016-018-010000-
NORTH CENTRAL ARIZONA

CITY           SKY/WX    TMP DP  RH WIND       PRES   REMARKS
GRAND CANYON   CLOUDY    67  57  70 NE3       30.34F
WILLIAMS       CLOUDY    77  46  33 SW8       30.41R
PRESCOTT       CLOUDY    80  56  43 S10       30.21S
FLAGSTAFF      NOT AVBL
PAYSON         CLOUDY    70  63  78 CALM      30.24S
PAGE           MOSUNNY   97  38  13 NE8       30.09F
$$

AZZ009>014-017-010000-
NORTHEAST ARIZONA

CITY           SKY/WX    TMP DP  RH WIND       PRES   REMARKS
WINSLOW        NOT AVBL
SAINT JOHNS    LGT RAIN  77  58  51 SE10      30.25F
SHOW LOW       LGT RAIN  68  54  60 SW13      30.35R
$$

AZZ023-010000-
GREATER PHOENIX AREA

CITY           SKY/WX    TMP DP  RH WIND       PRES   REMARKS
PHOENIX        PTSUNNY   97  61  30 NE26G35   29.85S THUNDER
GLENDALE       LGT RAIN  99  61  28 W21G29    29.89R
LUKE AFB       LGT RAIN  97  61  30 NW20G36   29.87R
DEER VALLEY    PTSUNNY   96  57  27 NE16G28   29.89F
SCOTTSDALE     LGT RAIN  86  63  45 NE25G33   29.92F
MESA-FALCON    PTSUNNY   88  64  45 N17G23    29.90R
MESA-GATEWAY   CLOUDY    93  63  36 MISG      29.93S
$$

AZZ027-028-010000-
SOUTHWEST MARICOPA COUNTY AND PINAL COUNTY

CITY           SKY/WX    TMP DP  RH WIND       PRES   REMARKS
CASA GRANDE    CLOUDY    93  68  43 NE21G36   29.88F THUNDER
$$

AZZ503-504-507>509-010000-
SOUTHEAST ARIZONA

CITY           SKY/WX    TMP DP  RH WIND       PRES   REMARKS
TUCSON         CLOUDY    90  59  35 W15       30.00F
DAVIS-MONTHAN  CLOUDY    88  65  46 W9        29.99R
RYAN FIELD     SUNNY     88  64  45 SW10      30.02F
NOGALES        LGT RAIN  72  65  78 S7        30.11S
SIERRA VISTA   CLOUDY    88  54  31 SE8       30.13F
SAFFORD        MOSUNNY   98  56  24 NE7       29.99F
$$

AZZ020-021-025-026-031-010000-
SOUTHWEST ARIZONA

CITY           SKY/WX    TMP DP  RH WIND       PRES   REMARKS
YUMA           CLOUDY   110  60  19 W8        29.80F HX 111
$$

CAZ031-033-041-043-047-048-061-010000-
SOUTHERN CALIFORNIA

CITY           SKY/WX    TMP DP  RH WIND       PRES   REMARKS
DOWNTOWN L.A.  SUNNY     79  66  64 VRB7      29.95F
L.A. AIRPORT   MOSUNNY   75  65  70 W15       29.97F
SAN DIEGO      PTSUNNY   76  64  66 W13       29.98F
BURBANK        SUNNY     91  62  37 S8        29.95F
ONTARIO        PTSUNNY   95  62  33 W13G21    29.95F
RIVERSIDE      CLOUDY    94  62  34 W10       29.94F
PALM SPRINGS   CLOUDY   106  61  23 NW16G22   29.84F HX 107
EL CENTRO NAS  PTSUNNY  109  39   9 VRB3      29.81F HX 103
IMPERIAL       SUNNY    110  48  12 NE8       29.79F HX 106
BLYTHE         MOSUNNY  107  58  20 VRB3      29.81F HX 107
$$

NVZ020-UTZ003-010000-
SOUTHERN NEVADA-UTAH

CITY           SKY/WX    TMP DP  RH WIND       PRES   REMARKS
LAS VEGAS      NOT AVBL
SALT LAKE CITY MOSUNNY   93  22   7 W5        30.14F
$$

NMZ009-TXZ055-010000-
NEW MEXICO-WEST TEXAS

CITY           SKY/WX    TMP DP  RH WIND       PRES   REMARKS
ALBUQUERQUE    PTSUNNY   81  55  40 W8        30.25F
EL PASO        MOSUNNY   92  52  25 VRB3      30.09F
$$


........................KEY........................
SKY/WX - SKY CONDITION/WEATHER
TMP    - TEMPERATURE IN FAHRENHEIT
DP     - DEW POINT IN FAHRENHEIT
RH     - RELATIVE HUMIDITY IN PERCENT
WIND   - DIRECTION AND SPEED IN MILES PER HOUR (MPH)
VRB    - VARIABLE WIND DIRECTION
PRES   - MEAN SEA LEVEL PRESSURE IN INCHES OF MERCURY
         F - FALLING PRESSURE   R - RISING PRESSURE
         S - STEADY PRESSURE
VSB    - VISIBILITY IN MILES
HX     - HEAT INDEX IN FAHRENHEIT
WCI    - WIND CHILL INDEX IN FAHRENHEIT
TC     - TEMPERATURE IN CELSIUS WHICH IS ALSO KNOWN AS
         TEMPERATURE IN CENTIGRADE
AFB    - AIR FORCE BASE
         LUKE AFB IS LUKE AIR FORCE BASE
         DAVIS-MONTHAN IS DAVIS-MONTHAN AIR FORCE BASE
NAS    - NAVAL AIR STATION
         EL CENTRO NAS IS EL CENTRO NAVAL AIR STATION
N/A    - NOT AVAILABLE



USA.gov is the U.S. government's official web portal to all federal, state and local government web resources and services.